Location: Unspecified
(40.9447°N, 78.9903°W)
Time: 12:02:51
(UTC-04:00)

Hubble Space Telescope - Pass Details

Date: 27 July 2021
Orbit: 535 x 539 km, 28.5° (Epoch: 16 September)

Event Time Altitude Azimuth Distance (km) Brightness Sun altitude
Rises 22:32:21 0° 244° (WSW) 2,666 4.5 -18.3°
Reaches altitude 10° 22:35:58 10° 212° (SSW) 1,774 3.2 -18.7°
Enters shadow 22:36:02 10° 211° (SSW) 1,764 3.2 -18.7°
